マクノート彗星

401P/McNaught (2006)

English version
Home page
Updated on October 17, 2020

---------------------------------------------------------------------

・ プロフィール

符号 401P/2006 H1
発見日 2006年4月29日
発見光度 17.9等
発見者 R. H. McNaught (Siding Spring Survey)

・ 写真集

・ 軌道要素

Epoch 2006 May 25.0 TT = JDT 2453880.5                                          
T 2006 May 7.37927 TT                                   Rudenko                 
q   2.3784594            (2000.0)            P               Q                  
n   0.07274427     Peri.  310.13422     +0.64627344     +0.76310575             
a   5.6833384      Node     0.13028     -0.61473937     +0.52101512             
e   0.5815031      Incl.   12.87030     -0.45213509     +0.38237791             
P  13.5                                                                         
From 221 observations 2006 Apr. 29-2020 Sept. 12, mean residual 0".6.           

・ 星図

・ 光度変化

        m1 = 8.0 + 5 logΔ + 20.0 log r

---------------------------------------------------------------------

軌道要素はM.P.E.C. 2020-R159に掲載されたものです。
星図は StellaNavigator Ver.2.0 for Windows (アストロアーツ 編著 / アスキー出版局刊) で作成したものです。
光度グラフはComet for Windowsで作成したものです。

---------------------------------------------------------------------

Copyright(C) Seiichi Yoshida (comet@aerith.net). All rights reserved.